METOP-B

Last updated on Fri Dec 19 2025 00:02:25 GMT+0000 (Coordinated Universal Time)

1 38771U 12049A 25352.63556507 .00000121 00000+0 75357-4 0 9990 2 38771 98.6792 42.4942 0003114 131.7383 228.4061 14.21410591687618
UTC large
Height (km)
Speed (km/s)
/
Latitude / Longitude
Inclination (degrees)
Orbital Period (minutes)
Azimuth
Elevation
Range (km)
Doppler Factor

Next 0 passes for location: London (51.5072 / 0.1276)

Sorry there are no passes over London.